Home   Weather   Winslow   Past weeks
Flag for USA

Past Weather in Winslow, Arizona, USA — Yesterday and Last 2 Weeks

Now
64 °F

Sunny.


Feels Like: 64 °F
Forecast: 71 / 47 °F
Wind: 15 mph from Southwest

Location: Winslow Municipal Airport

Current Time: Oct 18, 2019 at 9:59:39 am

Latest Report: Oct 18, 2019 at 8:56 am


Visibility: 10 mi

Pressure: 29.74 "Hg (25.00 "Hg at 1478m altitude)

Humidity: 35%

Dew Point: 36 °F

Location of WinslowLocation

Past Weather in Winslow — Graph

°F

Winslow Temperature Yesterday

Maximum temperature yesterday: 81 °F (at 12:56 pm)
Minimum temperature yesterday: 49 °F (at 6:56 am)
Average temperature yesterday: 66 °F

High & Low Weather Summary for the Past Weeks

 TemperatureHumidityPressure
High84 °F (Oct 3, 12:56 pm)71% (Oct 5, 4:56 am)30.37 "Hg (Oct 5, 4:56 am)
Low20 °F (Oct 11, 4:56 am)8% (Oct 10, 5:56 pm)29.56 "Hg (Oct 18, 12:56 am)
Average59 °F30%29.97 "Hg
* Reported Oct 3 8:56 am — Oct 18 8:56 am, Winslow. Weather by CustomWeather, © 2019

Note: Actual official high and low records may vary slightly from our data, if they occured in-between our weather recording intervals... More about our weather records

Advertising

Winslow Weather History for the Previous 24 Hours

Scroll right to see more
 ConditionsComfort  
Time TempWeatherWind HumidityBarometerVisibility
8:56 am
Fri, Oct 18
64 °FSunny.15 mph35%29.74 "Hg10 mi
7:56 am57 °FSunny.7 mph47%29.74 "Hg10 mi
6:56 am49 °FSunny.8 mph61%29.74 "Hg10 mi
5:56 am56 °FClear.6 mph51%29.70 "Hg10 mi
4:56 am55 °FClear.5 mph51%29.66 "Hg10 mi
3:56 am57 °FClear.17 mph49%29.61 "Hg10 mi
2:56 am58 °FClear.21 mph50%29.59 "Hg10 mi
1:56 am61 °FClear.7 mph42%29.59 "Hg10 mi
12:56 am64 °FClear.22 mph43%29.56 "Hg10 mi
11:56 pm
Thu, Oct 17
64 °FClear.15 mph45%29.57 "Hg10 mi
10:56 pm65 °FClear.14 mph42%29.58 "Hg10 mi
9:56 pm64 °FClear.13 mph40%29.60 "Hg10 mi
8:56 pm63 °FClear.10 mph40%29.64 "Hg10 mi
7:56 pm64 °FClear.7 mph40%29.65 "Hg10 mi
6:56 pm67 °FClear.7 mph35%29.66 "Hg10 mi
5:56 pm71 °FClear.10 mph29%29.64 "Hg10 mi
4:56 pm75 °FSunny.24 mph24%29.65 "Hg10 mi
3:56 pm78 °FSunny.20 mph20%29.65 "Hg10 mi
2:56 pm79 °FSunny.23 mph18%29.66 "Hg10 mi
1:56 pm80 °FSunny.22 mph16%29.67 "Hg10 mi
12:56 pm81 °FSunny.24 mph15%29.70 "Hg10 mi
11:56 am80 °FSunny.26 mph17%29.73 "Hg10 mi
11:34 am79 °FSunny.21 mph17%29.93 "Hg10 mi
10:56 am75 °FSunny.14 mph23%29.78 "Hg10 mi
9:56 am69 °FSunny.14 mph23%29.82 "Hg10 mi
Weather by CustomWeather, © 2019

See weather overview